Weather History for Dodge City, KS

Change the Weather History Date:

Thursday, January 30, 2014

  Actual Average Record
Temperature  
Mean Temperature 41 °F -  
Max Temperature 55 °F 45 °F 73 °F (1986)
Min Temperature 27 °F 20 °F -10 °F (1902)
Degree Days  
Heating Degree Days 24    
Moisture  
Dew Point 19 °F    
Average Humidity 44    
Maximum Humidity 63    
Minimum Humidity 24    
Precipitation  
Precipitation 0.00 in - - ()
Sea Level Pressure  
Sea Level Pressure 29.72 in    
Wind  
Wind Speed 18 mph (NE)    
Max Wind Speed 23 mph    
Max Gust Speed 32 mph    
Visibility 10 miles    
Events      
Averages and records for this station are not official NWS values.
T = Trace of Precipitation, MM = Missing Value Source: NWS Daily Summary

Daily Weather History Graph

Daily Weather History Graph

Search for Another Location

Airport:

Trip Planner

Search our weather history database for the weather conditions in past years. The results will help you decide how hot, cold, wet, or windy it might be!

Date:

Astronomy

Jan. 30, 2014 Rise Set
Actual Time 7:45 AM CST 6:01 PM CST
Civil Twilight 7:17 AM CST 6:29 PM CST
Nautical Twilight 6:46 AM CST 7:00 PM CST
Astronomical Twilight 6:15 AM CST 7:31 PM CST
Moon 7:13 AM CST (1/30) 6:14 PM CST (1/30)
Length of Visible Light 11h 11m
Length of Day
10h 15m
Waning Crescent, 0% of the Moon is Illuminated
Jan 30
Waning Crescent
Jan 30
New
Feb 6
First Quarter
Feb 14
Full
Feb 22
Last Quarter

Hourly Weather History & Observations

Time (CST) Temp. Windchill Dew Point Humidity Pressure Visibility Wind Dir Wind Speed Gust Speed Precip Events Conditions
12:52 AM 35.1 °F 23.5 °F 10.0 °F 35% 29.63 in 10.0 mi South 21.9 mph 28.8 mph N/A   Clear
1:52 AM 34.0 °F 22.1 °F 10.9 °F 38% 29.59 in 10.0 mi SSW 21.9 mph 28.8 mph N/A   Clear
2:52 AM 34.0 °F 23.0 °F 10.9 °F 38% 29.55 in 10.0 mi South 18.4 mph 28.8 mph N/A   Clear
3:52 AM 34.0 °F 22.4 °F 12.0 °F 40% 29.53 in 10.0 mi SSW 20.7 mph - N/A   Clear
4:52 AM 33.1 °F 22.6 °F 12.0 °F 42% 29.51 in 10.0 mi South 16.1 mph - N/A   Clear
5:52 AM 33.1 °F 23.4 °F 12.0 °F 42% 29.54 in 10.0 mi SSW 13.8 mph - N/A   Clear
6:52 AM 32.0 °F 21.2 °F 12.9 °F 45% 29.58 in 10.0 mi SW 16.1 mph - N/A   Clear
7:52 AM 36.0 °F 28.0 °F 15.1 °F 43% 29.61 in 10.0 mi West 11.5 mph - N/A   Clear
8:52 AM 41.0 °F 34.7 °F 18.0 °F 40% 29.64 in 10.0 mi WNW 10.4 mph - N/A   Clear
9:52 AM 45.0 °F 38.5 °F 26.1 °F 48% 29.68 in 10.0 mi North 13.8 mph - N/A   Clear
10:52 AM 48.9 °F - 30.0 °F 48% 29.71 in 10.0 mi North 23.0 mph 32.2 mph N/A   Scattered Clouds
11:52 AM 53.1 °F - 30.0 °F 41% 29.73 in 10.0 mi North 20.7 mph 27.6 mph N/A   Scattered Clouds
12:52 PM 53.1 °F - 30.0 °F 41% 29.72 in 10.0 mi NNE 21.9 mph - N/A   Mostly Cloudy
1:52 PM 53.1 °F - 30.9 °F 43% 29.73 in 10.0 mi NE 20.7 mph 27.6 mph N/A   Clear
2:52 PM 50.0 °F - 30.0 °F 46% 29.75 in 10.0 mi NE 19.6 mph - N/A   Clear
3:52 PM 46.0 °F 38.5 °F 25.0 °F 44% 29.80 in 10.0 mi NE 19.6 mph - N/A   Clear
4:52 PM 42.1 °F 34.5 °F 21.9 °F 45% 29.82 in 10.0 mi ENE 15.0 mph - N/A   Clear
5:52 PM 36.0 °F 28.0 °F 21.0 °F 55% 29.86 in 10.0 mi NE 11.5 mph - N/A   Clear
6:52 PM 35.1 °F 27.4 °F 19.9 °F 54% 29.88 in 10.0 mi NE 10.4 mph - N/A   Clear
7:52 PM 33.1 °F 23.4 °F 19.0 °F 56% 29.87 in 10.0 mi NE 13.8 mph - N/A   Clear
8:52 PM 32.0 °F 21.6 °F 18.0 °F 56% 29.87 in 10.0 mi NE 15.0 mph - N/A   Scattered Clouds
9:52 PM 30.9 °F 18.7 °F 18.0 °F 59% 29.89 in 10.0 mi NE 19.6 mph - N/A   Scattered Clouds
10:52 PM 28.9 °F 16.5 °F 17.1 °F 61% 29.88 in 10.0 mi NE 18.4 mph 24.2 mph N/A   Clear
11:52 PM 27.0 °F 14.7 °F 16.0 °F 63% 29.86 in 10.0 mi NE 16.1 mph - N/A   Partly Cloudy